GFSFLT1_850_temp_360.txt.gz
Temp
2 2 2 2 2 2 2 1 1 1 2 3 4 4 4 5 7 8 10 11 12 13 13 12 13 13 12 13 12 12 12 12
2 2 2 2 1 1 1 1 0 0 1 2 3 4 3 6 6 7 8 11 11 12 13 13 13 13 13 12 12 12 12 12
2 2 2 1 1 1 1 0 -0 -1 -0 1 1 1 3 4 4 5 7 9 10 12 12 12 13 12 12 12 12 12 12 12
2 2 1 1 1 0 0 0 -0 -1 -1 -0 0 0 2 4 5 5 6 8 9 11 11 12 12 12 12 12 12 12 12 12
2 1 1 1 0 0 -0 -0 -1 -1 -1 -1 -1 -1 -1 -1 1 3 5 6 8 9 10 12 12 12 12 12 12 12 12 12
1 1 1 0 0 -0 -0 -1 -1 -1 -2 -1 -1 -1 -1 -1 -1 1 3 5 6 7 9 11 12 11 12 12 12 12 12 12
1 1 0 0 -0 -1 -1 -1 -1 -1 -2 -2 -1 -1 -1 -1 -2 -2 -0 3 5 6 8 9 11 11 12 12 12 12 12 12
1 1 0 -0 -0 -1 -1 -1 -1 -1 -2 -2 -2 -2 -1 -1 -2 -2 -2 0 4 6 7 9 9 11 11 12 11 12 12 12
1 0 -0 -1 -1 -1 -1 -1 -2 -2 -2 -2 -2 -2 -2 -2 -2 -2 -2 -2 1 4 5 7 8 9 10 11 11 12 11 11
0 0 -0 -1 -1 -1 -1 -2 -2 -2 -2 -2 -2 -2 -2 -2 -2 -2 -2 -3 -1 1 3 5 6 8 9 10 11 11 11 12
0 -0 -1 -1 -1 -2 -2 -2 -2 -3 -3 -3 -3 -3 -2 -2 -2 -2 -2 -3 -2 -1 2 4 5 7 8 9 10 11 11 11
-0 -1 -1 -1 -2 -2 -2 -2 -2 -3 -3 -3 -3 -3 -3 -3 -3 -2 -2 -3 -2 -1 -0 1 3 5 7 8 10 10 10 11
-1 -1 -1 -2 -2 -2 -2 -2 -3 -3 -3 -4 -4 -4 -3 -3 -3 -2 -2 -3 -2 -2 -1 0 1 3 6 7 8 9 10 11
-1 -1 -2 -2 -2 -2 -2 -3 -3 -4 -4 -4 -4 -4 -4 -4 -3 -2 -2 -2 -2 -2 -1 -1 0 1 4 5 7 8 9 10
-1 -1 -2 -2 -2 -3 -3 -3 -4 -4 -4 -4 -4 -4 -4 -4 -3 -3 -2 -2 -2 -2 -2 -2 -1 0 3 5 6 7 8 9
-1 -2 -2 -2 -2 -3 -4 -4 -4 -5 -5 -5 -4 -4 -4 -4 -3 -3 -3 -2 -2 -2 -2 -2 -1 0 1 3 4 5 6 8
-1 -2 -2 -2 -3 -3 -4 -4 -5 -5 -5 -5 -5 -4 -4 -4 -4 -3 -3 -3 -2 -2 -2 -2 -1 -0 1 2 3 4 5 7
-1 -2 -2 -2 -3 -3 -4 -4 -5 -5 -5 -5 -5 -5 -4 -4 -4 -4 -3 -3 -3 -3 -4 -3 -2 -1 0 1 2 3 4 4
-1 -2 -2 -3 -3 -4 -4 -5 -5 -5 -5 -5 -5 -5 -5 -4 -4 -4 -4 -3 -4 -4 -4 -4 -3 -2 -0 0 0 1 2 3

GFSFLT1_850_temp_363.txt.gz
Temp
2 2 1 1 1 1 1 1 -0 -0 1 2 3 4 4 5 5 6 8 9 11 11 11 12 12 13 12 12 12 12 12 12
2 1 1 1 1 1 1 1 -0 -1 -0 0 1 1 3 5 5 4 7 8 9 11 12 12 12 12 12 12 12 12 12 11
1 1 1 0 1 0 0 0 -0 -1 -1 -0 -1 -0 1 2 4 3 6 7 8 10 11 12 12 12 12 12 12 12 12 11
1 1 0 0 -0 0 -0 -0 -0 -1 -1 -1 -1 -0 0 1 3 4 6 6 6 8 10 11 12 12 12 12 12 12 12 11
1 1 1 0 -0 -0 -0 -1 -1 -1 -1 -1 -1 -1 -1 -1 -0 1 4 5 6 7 9 10 11 11 12 12 12 12 12 12
1 1 0 -0 -0 -0 -1 -1 -1 -1 -2 -2 -2 -2 -2 -1 -1 -0 1 3 5 6 7 9 10 11 12 12 12 12 12 13
1 0 0 0 -0 -1 -1 -1 -2 -2 -2 -2 -2 -2 -2 -2 -1 -1 -0 1 4 6 6 8 8 10 11 11 12 12 12 12
1 0 0 -0 -1 -1 -1 -1 -2 -2 -2 -2 -2 -2 -2 -2 -2 -2 -1 -1 2 6 6 6 7 9 10 11 12 12 12 12
1 0 0 -1 -1 -1 -2 -2 -2 -2 -2 -3 -2 -2 -3 -2 -2 -2 -2 -2 -1 2 4 5 6 7 9 10 11 11 11 11
0 -0 -0 -1 -1 -2 -2 -2 -2 -2 -3 -3 -3 -3 -3 -3 -2 -2 -2 -2 -2 -2 0 3 5 7 8 9 10 11 11 11
-0 -1 -1 -1 -2 -2 -2 -2 -2 -3 -3 -3 -3 -3 -3 -3 -3 -2 -2 -2 -2 -2 -1 0 2 5 6 9 9 10 11 11
-1 -1 -1 -2 -2 -2 -2 -2 -3 -3 -3 -4 -4 -4 -3 -3 -3 -3 -2 -2 -2 -2 -1 -0 1 3 5 7 8 9 10 11
-1 -1 -1 -2 -2 -2 -2 -3 -3 -3 -4 -4 -4 -4 -4 -3 -3 -3 -2 -2 -2 -2 -2 -1 -0 1 3 6 7 8 9 10
-1 -1 -2 -2 -2 -2 -3 -3 -4 -4 -4 -4 -4 -4 -4 -3 -3 -3 -3 -2 -2 -2 -2 -2 -1 -0 1 3 5 7 8 9
-1 -2 -2 -2 -2 -3 -3 -3 -4 -5 -5 -5 -5 -4 -4 -4 -3 -4 -3 -3 -2 -2 -2 -2 -1 -0 1 2 3 5 6 8
-1 -1 -2 -2 -2 -3 -3 -4 -5 -5 -5 -5 -5 -5 -4 -4 -3 -4 -3 -3 -3 -2 -2 -1 -1 0 1 1 3 4 5 6
-1 -1 -2 -2 -3 -3 -4 -4 -5 -5 -5 -5 -5 -4 -4 -4 -4 -4 -4 -3 -3 -3 -3 -2 -1 0 1 1 1 2 4 5
-1 -1 -2 -2 -3 -3 -4 -4 -5 -5 -5 -5 -5 -5 -4 -4 -4 -4 -4 -4 -4 -4 -4 -3 -2 -1 1 1 1 1 2 3
-1 -1 -2 -2 -3 -4 -4 -4 -5 -5 -5 -5 -5 -5 -5 -4 -4 -4 -4 -4 -4 -4 -4 -3 -3 -2 -1 -1 -1 -0 0 1

GFSFLT1_850_temp_366.txt.gz
Temp
2 1 1 1 1 1 1 1 0 -0 0 1 2 2 3 3 5 7 6 7 9 10 10 11 12 12 12 12 12 12 12 12
2 1 1 1 1 1 1 0 0 -1 -0 -0 -0 0 1 2 2 5 7 6 7 8 10 11 12 12 12 12 12 12 12 11
1 1 1 0 1 1 1 -0 -0 -1 -1 -1 -1 -1 -0 0 1 2 5 6 6 6 9 11 11 11 12 12 12 12 12 11
1 1 0 0 0 0 -0 -1 -1 -1 -2 -1 -1 -1 -0 1 1 1 3 5 4 6 7 9 10 10 11 12 12 12 12 11
1 1 1 0 0 -0 -1 -1 -1 -2 -2 -2 -2 -2 -2 -2 -1 -0 1 2 2 6 6 8 8 11 12 11 12 12 12 12
1 1 0 0 -0 -1 -1 -1 -2 -2 -2 -2 -2 -2 -2 -2 -2 -1 0 1 1 5 7 6 7 9 10 11 11 12 12 12
1 0 -0 -0 -1 -1 -1 -2 -2 -2 -2 -3 -3 -3 -3 -3 -2 -2 -1 1 1 5 5 5 6 8 10 11 11 11 12 12
1 0 -0 -1 -1 -1 -2 -2 -2 -2 -3 -3 -3 -3 -3 -3 -3 -2 -2 -0 1 2 4 5 6 6 9 10 11 11 11 11
1 0 -1 -1 -1 -1 -2 -2 -2 -3 -3 -3 -3 -3 -3 -4 -3 -3 -2 -2 -1 1 1 3 5 6 8 8 11 11 11 11
0 -0 -1 -1 -1 -2 -2 -2 -2 -3 -3 -3 -3 -4 -4 -4 -3 -3 -2 -2 -2 -1 -0 1 3 4 7 8 9 10 11 12
0 -0 -1 -1 -2 -2 -2 -2 -3 -3 -3 -4 -4 -4 -4 -4 -3 -3 -2 -2 -2 -2 -1 -0 1 3 5 7 8 9 11 11
-0 -1 -1 -2 -2 -2 -2 -2 -3 -3 -4 -4 -4 -4 -4 -4 -4 -3 -3 -2 -2 -2 -2 -1 -0 1 3 6 6 7 10 10
-0 -1 -2 -2 -2 -2 -2 -3 -3 -4 -4 -5 -5 -5 -4 -4 -4 -4 -3 -3 -3 -3 -2 -2 -0 1 2 4 4 6 8 9
-1 -1 -2 -2 -2 -2 -3 -3 -4 -4 -5 -5 -5 -5 -4 -4 -4 -4 -3 -3 -3 -2 -2 -1 -1 -0 1 2 3 5 6 8
-1 -1 -1 -2 -2 -3 -3 -4 -4 -5 -5 -5 -5 -5 -4 -4 -4 -4 -3 -3 -3 -3 -3 -1 -0 0 1 1 3 4 5 7
-0 -1 -1 -2 -2 -3 -4 -4 -5 -5 -5 -5 -5 -5 -4 -4 -4 -4 -4 -3 -3 -3 -3 -2 -1 0 1 1 1 3 4 5
-0 -1 -1 -2 -2 -3 -4 -4 -5 -5 -5 -5 -5 -5 -4 -5 -4 -4 -4 -4 -4 -3 -3 -2 -2 -1 0 1 1 1 2 3
-0 -1 -1 -2 -2 -3 -4 -4 -5 -5 -5 -5 -5 -5 -5 -4 -4 -4 -4 -4 -4 -3 -3 -2 -2 -2 -1 -1 -1 -0 1 1
-0 -1 -1 -2 -2 -3 -4 -4 -5 -5 -5 -5 -5 -5 -5 -4 -4 -4 -4 -4 -4 -4 -3 -3 -2 -2 -2 -2 -3 -2 -1 -0

GFSFLT1_850_temp_369.txt.gz
Temp
2 2 2 2 2 1 1 1 0 -0 -1 -1 -1 -0 1 1 1 3 4 6 8 8 10 10 11 12 12 12 12 12 12 11
2 2 2 2 1 1 1 0 -0 -1 -1 -2 -2 -2 -1 1 1 2 3 4 7 7 8 10 11 11 12 12 12 12 12 11
2 2 1 1 1 0 0 -0 -1 -1 -2 -2 -2 -2 -2 -1 0 1 2 3 4 6 7 8 9 10 11 11 12 12 12 12
2 2 1 1 0 0 -0 -1 -1 -2 -2 -2 -3 -3 -2 -2 -1 0 1 2 3 6 6 6 8 9 11 11 12 12 12 11
2 2 1 1 -0 -0 -1 -1 -2 -2 -2 -2 -3 -3 -3 -3 -3 -1 -0 1 2 5 6 6 6 8 10 10 11 11 11 11
2 1 1 0 0 -0 -1 -1 -2 -2 -2 -3 -3 -3 -3 -3 -3 -2 -1 1 1 2 5 5 6 6 9 10 11 11 11 12
2 1 0 0 -0 -1 -1 -2 -2 -2 -3 -3 -3 -3 -4 -4 -3 -3 -2 -1 1 0 3 4 4 6 7 9 10 11 11 11
1 0 -0 -0 -1 -1 -2 -2 -2 -3 -3 -3 -3 -3 -4 -4 -4 -3 -3 -2 -2 -0 0 3 4 5 6 8 9 11 11 11
1 0 -0 -1 -1 -2 -2 -2 -2 -3 -3 -3 -3 -4 -4 -4 -4 -3 -3 -2 -2 -2 -1 0 3 4 5 6 8 11 11 11
1 0 -0 -1 -1 -2 -2 -2 -3 -3 -3 -4 -4 -4 -4 -4 -4 -3 -3 -2 -3 -2 -2 -1 1 3 6 6 7 10 10 11
0 -0 -1 -1 -2 -2 -2 -3 -3 -3 -4 -4 -4 -4 -4 -4 -4 -4 -3 -3 -3 -2 -2 -1 -0 2 4 6 7 9 9 10
0 -1 -1 -2 -2 -2 -2 -2 -3 -4 -4 -4 -5 -4 -4 -4 -4 -4 -3 -3 -3 -2 -2 -1 -0 1 3 5 5 7 8 10
-0 -1 -1 -2 -2 -2 -2 -3 -3 -4 -5 -5 -5 -5 -4 -4 -4 -3 -3 -3 -3 -2 -2 -1 -0 1 2 4 5 6 7 9
0 -1 -1 -1 -2 -2 -3 -3 -4 -5 -5 -5 -5 -5 -4 -4 -4 -3 -3 -3 -3 -3 -2 -1 -0 0 1 2 4 5 6 7
0 -0 -1 -1 -2 -2 -3 -4 -4 -5 -5 -5 -5 -5 -4 -4 -4 -4 -3 -3 -3 -3 -2 -1 -1 0 1 1 2 4 4 6
0 -0 -1 -1 -2 -2 -3 -4 -4 -5 -5 -5 -5 -5 -4 -5 -4 -4 -4 -4 -3 -3 -3 -2 -1 0 1 1 1 2 3 4
0 -0 -1 -1 -2 -2 -3 -4 -4 -5 -5 -5 -5 -5 -5 -5 -4 -5 -4 -4 -4 -3 -3 -2 -2 -1 0 1 1 1 2 3
0 -0 -1 -1 -2 -3 -3 -4 -4 -5 -5 -5 -5 -5 -4 -5 -5 -4 -4 -4 -4 -3 -3 -3 -2 -2 -1 0 -1 -1 0 1
0 -0 -1 -2 -2 -3 -3 -4 -4 -5 -5 -5 -5 -5 -5 -4 -5 -5 -5 -4 -4 -4 -3 -3 -3 -2 -2 -1 -3 -2 -1 -0

GFSFLT1_850_temp_372.txt.gz
Temp
5 4 4 3 3 2 2 1 0 0 1 0 1 1 1 1 0 -0 2 3 4 6 8 8 9 10 11 12 11 11 12 11
5 4 3 3 3 2 1 1 0 -0 0 -0 -0 0 0 1 0 -0 -0 1 3 5 7 7 8 10 11 11 12 12 11 11
6 4 4 3 2 2 1 1 0 -0 -0 -1 -1 -1 -0 0 0 -0 -1 1 2 3 6 7 7 9 10 11 11 12 12 11
5 5 4 3 3 2 1 0 -0 -1 -1 -1 -1 -1 -0 0 0 0 -1 -1 -0 2 4 5 6 7 9 11 11 12 12 12
6 5 4 3 2 1 0 0 -0 -1 -1 -1 -2 -1 -1 -1 -0 -0 -0 -1 -0 1 3 4 7 6 7 9 11 11 11 11
5 4 4 3 2 1 0 -0 -1 -1 -1 -2 -2 -2 -2 -1 -1 -1 -0 -0 -1 -1 2 3 6 5 7 8 10 11 11 11
4 4 2 2 2 1 -0 -1 -1 -1 -2 -2 -2 -2 -2 -2 -1 -1 -0 -0 -1 -1 0 2 4 5 7 8 8 10 11 11
4 3 2 2 1 1 -0 -1 -1 -1 -2 -2 -2 -2 -2 -2 -2 -1 -1 -1 -2 -1 -1 1 3 4 6 8 8 10 10 11
3 2 2 1 1 -0 -1 -1 -1 -2 -2 -2 -2 -3 -2 -2 -2 -3 -2 -2 -2 -1 -1 0 1 3 6 7 7 9 10 11
3 2 1 0 0 -0 -1 -1 -2 -2 -2 -3 -3 -3 -3 -3 -3 -3 -3 -2 -2 -2 -2 -1 0 2 5 6 6 9 9 10
3 2 1 0 -0 -1 -1 -2 -2 -2 -3 -3 -3 -3 -3 -3 -3 -3 -3 -2 -2 -2 -2 -2 0 1 2 5 7 8 8 9
3 2 1 -0 -1 -1 -2 -2 -2 -3 -3 -3 -4 -3 -3 -3 -3 -3 -3 -2 -2 -2 -2 -2 -0 1 3 3 7 7 8 7
2 1 0 0 -0 -1 -1 -2 -3 -3 -4 -4 -4 -4 -4 -3 -3 -3 -3 -3 -3 -2 -2 -3 -1 1 2 3 5 6 7 7
2 2 1 0 -0 -1 -1 -2 -3 -3 -4 -3 -4 -4 -4 -3 -3 -3 -3 -3 -3 -3 -3 -3 -1 0 1 2 3 4 6 7
2 2 1 0 -1 -1 -2 -2 -3 -4 -4 -3 -4 -4 -4 -4 -3 -4 -3 -3 -3 -4 -3 -3 -2 0 1 1 2 3 4 6
3 2 1 1 -0 -1 -2 -2 -3 -4 -4 -4 -4 -4 -4 -4 -4 -4 -4 -4 -4 -4 -4 -4 -3 -1 1 1 1 2 3 4
2 2 1 0 -0 -1 -2 -3 -3 -4 -4 -4 -4 -4 -4 -4 -4 -4 -4 -4 -4 -4 -4 -4 -4 -3 -0 1 1 1 2 3
2 2 1 0 -0 -1 -2 -3 -3 -4 -4 -4 -4 -4 -4 -4 -4 -4 -4 -4 -4 -5 -5 -4 -4 -2 -1 -0 -1 -0 1 1
2 2 1 0 -1 -1 -2 -3 -3 -4 -4 -4 -4 -4 -4 -5 -4 -4 -4 -4 -4 -5 -5 -5 -5 -2 -1 -1 -1 -2 -1 0

GFSFLT1_850_temp_378.txt.gz
Temp
11 11 10 9 8 7 6 5 4 3 2 2 2 2 2 2 2 3 2 2 2 3 4 5 6 7 8 10 11 12 11 11
11 10 9 9 8 7 6 5 3 1 2 2 1 1 1 2 2 2 2 2 2 2 3 4 5 7 6 8 9 10 11 11
11 9 8 8 7 7 6 4 2 1 1 1 1 1 1 1 2 2 2 2 1 2 2 4 4 6 5 7 9 10 11 11
10 9 8 7 7 6 5 4 2 -1 1 1 0 0 1 1 1 2 1 2 2 1 2 2 3 5 5 6 8 8 9 11
9 8 7 6 6 5 4 3 1 1 0 0 -0 -0 -1 0 1 1 1 0 1 1 1 1 1 3 5 6 7 7 9 10
9 7 7 6 5 4 3 2 1 -1 0 0 -0 -0 -0 -0 -0 -1 -0 -1 -1 -0 0 0 0 2 4 5 6 7 8 8
8 7 6 5 5 4 3 2 1 1 0 -0 -1 -1 -1 -1 -1 -1 -1 -1 -1 -1 -0 -0 0 2 4 5 6 7 7 8
8 7 5 5 4 3 2 2 1 0 0 -1 -1 -1 -1 -1 -2 -2 -1 -1 -1 -1 -1 -1 -0 1 3 4 6 7 7 8
8 7 5 4 3 3 2 1 1 1 -0 -1 -1 -1 -2 -2 -2 -2 -2 -2 -1 -1 -1 -1 -1 0 2 4 5 7 7 8
8 7 5 4 3 2 1 1 1 0 -0 -1 -1 -2 -2 -2 -2 -2 -2 -2 -1 -1 -1 -1 -0 0 2 3 5 6 7 7
8 7 5 4 3 2 1 1 0 0 -1 -1 -2 -2 -2 -2 -2 -2 -2 -2 -2 -2 -2 -2 -1 0 1 3 5 6 7 8
8 7 5 4 3 2 2 1 0 -0 -1 -2 -2 -2 -2 -2 -2 -2 -2 -2 -2 -2 -2 -2 -1 -0 1 3 5 6 8 8
8 7 6 4 4 3 2 1 0 -1 -1 -2 -2 -2 -2 -2 -2 -2 -2 -2 -2 -2 -2 -2 -2 0 1 2 4 6 8 8
8 7 6 5 4 3 2 1 0 -1 -1 -1 -2 -2 -2 -2 -2 -2 -2 -3 -2 -3 -2 -2 -2 0 1 2 3 4 7 7
8 7 6 5 4 3 2 1 0 -1 -1 -1 -2 -2 -2 -2 -2 -2 -2 -2 -3 -2 -2 -2 -2 -0 1 2 3 4 4 4
8 7 6 5 4 3 2 1 0 -1 -1 -1 -1 -1 -2 -2 -2 -2 -2 -2 -2 -2 -2 -2 -2 0 1 1 2 3 4 4
8 7 6 5 4 3 2 1 0 -1 -1 -1 -1 -1 -2 -2 -2 -2 -2 -2 -2 -2 -2 -2 -1 -0 -0 1 1 2 3 4
8 7 6 5 4 3 2 1 0 -1 -1 -1 -1 -1 -1 -2 -2 -2 -2 -2 -2 -2 -2 -3 -2 -1 0 0 1 1 1 1
8 7 6 5 4 3 2 1 1 -0 -1 -1 -1 -1 -1 -1 -2 -2 -2 -2 -2 -2 -3 -2 -3 -1 -1 -0 -1 -1 0 1

GFSFLT1_850_temp_381.txt.gz
Temp
11 10 10 9 8 7 7 6 4 3 3 2 1 1 1 1 1 2 1 2 2 2 2 4 5 6 7 9 11 11 11 12
11 10 9 8 7 7 6 5 3 2 2 1 0 1 1 1 1 1 2 1 1 2 2 3 3 5 6 7 10 11 11 11
10 9 8 7 6 6 5 4 3 2 2 1 0 0 0 0 1 1 -0 0 0 2 1 2 3 4 5 6 8 9 11 11
9 8 7 7 6 5 4 3 2 2 1 0 -0 0 -0 0 -0 -1 -0 -0 -0 0 1 1 2 4 5 6 7 9 10 10
9 8 7 6 5 4 3 3 2 1 0 -0 -0 -1 -1 -1 -1 -1 -1 -1 -1 -0 -0 0 1 2 4 5 6 7 8 10
8 7 6 5 5 4 3 2 1 1 0 -0 -0 -1 -1 -1 -1 -1 -1 -1 -1 0 -0 -0 0 1 4 5 6 6 7 9
8 7 6 5 4 3 2 2 1 1 0 -0 -1 -1 -1 -1 -1 -1 -1 -1 -1 -1 -1 -1 -1 1 3 4 5 6 6 7
8 7 6 5 4 3 2 2 1 0 -0 -0 -1 -1 -1 -2 -2 -2 -2 -2 -1 -1 -1 -1 -1 -0 3 4 5 6 7 7
8 7 6 5 3 3 2 1 0 0 -0 -1 -1 -1 -2 -2 -2 -2 -2 -2 -2 -2 -2 -2 -1 -0 2 4 5 6 7 7
8 7 6 4 3 2 2 1 0 0 -0 -1 -1 -2 -2 -2 -2 -2 -2 -2 -2 -2 -2 -2 -2 -0 2 3 4 6 7 7
8 7 6 5 4 3 2 1 0 -0 -1 -1 -2 -2 -2 -2 -2 -2 -2 -2 -2 -2 -2 -2 -1 -0 1 3 4 6 7 8
8 7 6 5 4 3 2 1 0 -0 -1 -1 -2 -2 -2 -3 -2 -2 -2 -2 -2 -2 -2 -2 -2 -1 1 3 4 5 6 8
8 7 6 5 4 3 2 1 0 -0 -1 -1 -2 -2 -2 -3 -2 -2 -3 -2 -2 -2 -2 -2 -2 -0 1 2 3 5 6 8
8 7 7 5 5 3 2 2 1 -0 -1 -1 -1 -2 -2 -2 -2 -2 -2 -2 -2 -2 -2 -2 -2 -0 0 2 3 4 5 7
9 8 7 6 5 4 3 2 1 0 -1 -1 -1 -2 -2 -2 -2 -2 -2 -2 -2 -2 -2 -2 -2 -1 0 1 2 3 5 6
9 8 7 6 5 4 3 2 1 0 -1 -1 -1 -2 -2 -2 -2 -2 -2 -2 -2 -2 -2 -2 -2 -1 0 1 2 2 3 5
8 8 7 6 5 4 3 2 1 0 -1 -1 -1 -1 -2 -2 -2 -2 -2 -2 -2 -2 -2 -2 -2 -1 -0 0 1 2 2 3
9 8 7 7 6 4 3 2 1 0 -0 -1 -1 -1 -2 -2 -2 -2 -2 -2 -2 -3 -3 -2 -2 -1 -1 -0 0 1 1 2
9 8 7 7 6 5 3 2 1 1 -0 -1 -1 -1 -1 -1 -1 -2 -2 -2 -2 -2 -2 -2 -2 -1 -0 -1 -0 1 1 1